Location: Treviso
(45.6669°N, 12.2430°E)
Time: 07:40:21
(UTC+01:00)

N. Korean satellite - Visible Passes

Search period start: 26 November 2020 00:00
Search period end: 06 December 2020 00:00
Orbit: 452 x 504 km, 97.2° (Epoch: 25 November)

Date Brightness Start Highest point End Pass type
(mag) Time Alt. Az. Time Alt. Az. Time Alt. Az.
26 Nov 6.5 05:46:41 10° NNE 05:50:16 86° ESE 05:53:54 10° SSW visible
26 Nov 9.9 17:59:17 10° WSW 18:00:49 12° W 18:02:21 10° WNW visible
27 Nov 8.0 05:20:34 10° NNE 05:23:57 39° E 05:27:23 10° S visible
27 Nov 9.0 17:31:28 10° SSW 17:34:19 25° W 17:37:14 10° NW visible
28 Nov 9.3 04:54:51 10° NE 04:57:33 20° E 05:00:15 10° SE visible
28 Nov 7.4 06:27:45 10° N 06:30:54 29° WNW 06:34:06 10° SW visible
28 Nov 7.3 17:04:36 10° S 17:07:57 54° W 17:11:20 10° NNW visible
29 Nov 6.5 06:01:10 10° N 06:04:44 61° WNW 06:08:19 10° SSW visible
30 Nov 7.1 05:34:52 10° NNE 05:38:27 61° E 05:42:04 10° S visible
30 Nov 9.6 17:46:32 10° SW 17:48:51 17° W 17:51:12 10° NW visible
01 Dec 8.6 05:08:52 10° NE 05:12:04 29° E 05:15:17 10° SSE visible
01 Dec 7.8 06:42:29 10° NNW 06:45:15 21° WNW 06:48:02 10° WSW visible
01 Dec 8.3 17:19:14 10° SSW 17:22:23 35° W 17:25:36 10° NNW visible
02 Dec 9.7 04:43:27 10° NE 04:45:35 15° E 04:47:44 10° SE visible
02 Dec 7.0 06:15:41 10° N 06:19:06 40° WNW 06:22:33 10° SW visible
03 Dec 6.5 05:49:12 10° NNE 05:52:51 87° WNW 05:56:31 10° SSW visible
03 Dec 10.0 18:02:03 10° WSW 18:03:21 12° W 18:04:39 10° WNW visible
04 Dec 7.8 05:23:00 10° NNE 05:26:30 43° E 05:30:01 10° S visible
04 Dec 8.2 06:57:22 10° NNW 06:59:30 15° WNW 07:01:38 10° W visible
04 Dec 9.2 17:33:59 10° SSW 17:36:48 23° W 17:39:39 10° NW visible
05 Dec 9.2 04:57:10 10° NE 05:00:03 22° E 05:02:56 10° SE visible
05 Dec 7.5 06:30:14 10° N 06:33:23 28° WNW 06:36:32 10° SW visible
05 Dec 7.5 17:07:00 10° S 17:10:20 50° W 17:13:46 10° NNW visible
